Location: Kosice
(48.7167°N, 21.2500°E)
Time: 02:05:32
(UTC+01:00)

ISS - Pass Details

Date: 25 January 2021
Orbit: 417 x 422 km, 51.6° (Epoch: 06 March)

Event Time Altitude Azimuth Distance (km) Brightness Sun altitude
Rises 19:34:38 0° 284° (WNW) 2,376 1.2 -31.6°
Reaches altitude 10° 19:36:46 10° 289° (WNW) 1,511 -0.1 -31.9°
Enters shadow 19:36:56 11° 290° (WNW) 1,447 -0.2 -31.9°
